Location: Waco, TX
(31.5480°N, 97.1670°W)
Time: 10:58:50
(UTC-05:00)

ISS - Pass Details

Date: 19 October 2018
Orbit: 403 x 408 km, 51.6° (Epoch: 23 October)

Event Time Altitude Azimuth Distance (km) Brightness Sun altitude
Rises 08:59:23 0° 211° (SSW) 2,304 -0.1 16.4°
Reaches altitude 10° 09:01:30 10° 205° (SSW) 1,449 -1.0 16.8°
Maximum altitude 09:04:36 44° 131° (SE) 567 -1.9 17.4°
Drops below altitude 10° 09:07:45 10° 58° (ENE) 1,461 -0.4 18.0°
Sets 09:09:53 0° 52° (NE) 2,324 0.4 18.4°
